Flag for Netherlands Weather past 2 weeks in Amsterdam, Netherlands

Now
54 °F

Passing clouds.


Feels Like: 53 °F
Forecast: 51 / 61 °F
Wind: 5 mph from West

Location: Amsterdam Schiphol Airport

Current Time: Sep 23, 2014 at 1:10:28 AM

Latest Report: Sep 23, 2014 at 12:25 AM


Visibility: N/A

Pressure: 30.18 "Hg

Humidity: 77%

Dew point: 46 °F

Location of AmsterdamLocation

Historic Weather in Amsterdam — Graph

°F

Amsterdam temperature yesterday

Maximum temperature yesterday: 63 °F (at 1:25 PM)
Minimum temperature yesterday: 54 °F (at 7:55 PM)
Average temperature yesterday: 58 °F

Past Weeks' High & Low Weather Summary

 TemperatureHumidityPressure
High77 °F (Sep 17, 3:25 PM)100% (Sep 8, 2:25 AM)30.30 "Hg (Sep 8, 2:25 AM)
Low50 °F (Sep 8, 5:25 AM)45% (Sep 22, 2:25 PM)29.80 "Hg (Sep 18, 2:25 PM)
Average62 °F82%30.06 "Hg
* Reported Sep 7 11:55 PM — Sep 22 11:55 PM, Amsterdam, Weather by CustomWeather, © 2014

Note: Actual official high and low records may vary slightly from our data, if they occured in-between our weather recording intervals... More about our weather records

Advertising

Amsterdam weather history for previous 24 hours

 ConditionsComfort  
Time TempWeatherWind HumidityBarometerVisibility
11:55 PM
Sep 22
54 °FPassing clouds.3 mph77%30.18 "HgN/A
11:25 PM55 °FPassing clouds.2 mph72%30.18 "HgN/A
10:55 PM55 °FPassing clouds.2 mph72%30.18 "HgN/A
10:25 PM54 °FPassing clouds.2 mph82%30.18 "HgN/A
9:55 PM55 °FPassing clouds.2 mph67%30.18 "HgN/A
9:25 PM54 °FPassing clouds.3 mph77%30.18 "HgN/A
8:55 PM54 °FPassing clouds.5 mph72%30.18 "HgN/A
8:25 PM54 °FPassing clouds.5 mph67%30.18 "HgN/A
7:55 PM54 °FPassing clouds.7 mph72%30.18 "HgN/A
7:25 PM57 °FPassing clouds.9 mph63%30.18 "HgN/A
6:55 PM57 °FPassing clouds.9 mph63%30.18 "HgN/A
6:25 PM57 °FPassing clouds.12 mph63%30.15 "HgN/A
5:55 PM59 °FPassing clouds.13 mph59%30.15 "HgN/A
5:25 PM61 °FPassing clouds.14 mph55%30.15 "HgN/A
4:55 PM63 °FPassing clouds.13 mph56%30.15 "HgN/A
4:25 PM63 °FPassing clouds.13 mph49%30.15 "HgN/A
3:55 PM63 °FPassing clouds.13 mph49%30.15 "HgN/A
3:25 PM63 °FPassing clouds.13 mph49%30.15 "HgN/A
2:55 PM61 °FPassing clouds.14 mph52%30.15 "HgN/A
2:25 PM63 °FPassing clouds.15 mph45%30.15 "HgN/A
1:55 PM63 °FPassing clouds.16 mph49%30.15 "HgN/A
1:25 PM63 °FPassing clouds.15 mph56%30.15 "HgN/A
12:55 PM61 °FPassing clouds.20 mph63%30.15 "HgN/A
12:25 PM59 °FSprinkles. Passing clouds.21 mph72%30.15 "HgN/A
11:55 AM59 °FScattered clouds.21 mph63%30.15 "HgN/A
11:25 AM61 °FPassing clouds.21 mph59%30.12 "HgN/A
10:55 AM61 °FPassing clouds.18 mph59%30.12 "HgN/A
10:25 AM59 °FSprinkles. Passing clouds.17 mph68%30.12 "HgN/A
9:55 AM57 °FPassing clouds.17 mph67%30.12 "HgN/A
9:25 AM57 °FPassing clouds.14 mph72%30.12 "HgN/A
8:55 AM57 °FSprinkles. Scattered clouds.18 mph67%30.12 "HgN/A
8:25 AM57 °FClear.16 mph63%30.12 "Hg10 mi
7:55 AM57 °FPassing clouds.15 mph67%30.12 "HgN/A
7:25 AM59 °FSprinkles. Passing clouds.16 mph59%30.12 "HgN/A
6:55 AM59 °FPassing clouds.16 mph63%30.12 "HgN/A
6:25 AM59 °FPassing clouds.17 mph68%30.12 "HgN/A
5:55 AM57 °FPassing clouds.12 mph72%30.12 "HgN/A
5:25 AM59 °FPassing clouds.13 mph63%30.12 "HgN/A
4:55 AM57 °FPassing clouds.13 mph67%30.12 "HgN/A
4:25 AM57 °FPassing clouds.10 mph63%30.15 "HgN/A
3:55 AM59 °FPassing clouds.15 mph59%30.15 "HgN/A
3:25 AM59 °FScattered showers. Passing clouds.14 mph59%30.15 "HgN/A
2:55 AM57 °FClear.10 mph63%30.15 "Hg10 mi
2:25 AM57 °FClear.10 mph59%30.15 "Hg10 mi
1:55 AM57 °FClear.13 mph63%30.15 "Hg6 mi
1:25 AM57 °FScattered showers. Passing clouds.10 mph77%30.15 "Hg6 mi
Weather by CustomWeather, © 2014

See weather overviewHow to use our weather pages